Location name: Mudasomwa | Identifier : 298001 | Type : Hydrology Station

On the left bank upstream Mudasomwa bridge the station consists of staff gauges and a radar. Both banks are stable and accessible.

  • Parameter : Stage
  • Unit : m
  • Start time : 1987-08-24T08:00:00.0000000+02:00
  • End time : 2014-08-11T00:00:00.0000000+02:00
  • Parameter : Stage
  • Unit : m
  • Start time : 2016-03-01T08:00:00.0000000+02:00
  • End time : 2017-02-28T17:00:00.0000000+02:00
  • Parameter : Discharge
  • Unit : m^3/s
  • Start time : 2016-03-01T08:00:00.0000000+02:00
  • End time : 2017-02-28T17:00:00.0000000+02:00
Date Parameter Unit Value
2023-04-18T11:00:00.0000000+02:00 Stage m 0.71
2023-04-18T11:00:00.0000000+02:00 Discharge m^3/s 8.934
2023-08-22T16:30:00.0000000+02:00 Discharge m^3/s 2.457
2023-08-22T16:30:00.0000000+02:00 Stage m 0.21
1986-12-17T00:00:00.0000000+02:00 Discharge m^3/s 3.130000114
1986-12-17T00:00:00.0000000+02:00 Stage m 0.529999971
1987-08-24T00:00:00.0000000+02:00 Discharge m^3/s 2.5
1987-08-24T00:00:00.0000000+02:00 Stage m 0.5
1987-09-22T00:00:00.0000000+02:00 Discharge m^3/s 3.390000105
1987-09-22T00:00:00.0000000+02:00 Stage m 0.579999983
1988-11-24T00:00:00.0000000+02:00 Discharge m^3/s 15.40999985
1988-11-24T00:00:00.0000000+02:00 Stage m 1.059999943
1989-07-05T00:00:00.0000000+02:00 Discharge m^3/s 3.890000105
1989-07-05T00:00:00.0000000+02:00 Stage m 0.579999983
1989-07-24T00:00:00.0000000+02:00 Discharge m^3/s 14.01000023
1989-07-24T00:00:00.0000000+02:00 Stage m 1.059999943
1989-07-24T00:00:00.0000000+02:00 Discharge m^3/s 3.380000114
1989-07-24T00:00:00.0000000+02:00 Stage m 0.540000021
1989-09-21T00:00:00.0000000+02:00 Discharge m^3/s 3.170000076
1989-09-21T00:00:00.0000000+02:00 Stage m 0.550000012
1990-03-21T00:00:00.0000000+02:00 Discharge m^3/s 6
1990-03-21T00:00:00.0000000+02:00 Stage m 0.699999988
1990-04-24T00:00:00.0000000+02:00 Discharge m^3/s 6.019999981
1990-04-24T00:00:00.0000000+02:00 Stage m 0.709999979
1990-06-20T00:00:00.0000000+02:00 Discharge m^3/s 3.579999924
1990-06-20T00:00:00.0000000+02:00 Stage m 0.529999971
1990-07-26T00:00:00.0000000+02:00 Discharge m^3/s 3.380000114
1990-07-26T00:00:00.0000000+02:00 Stage m 0.569999993
1990-12-05T00:00:00.0000000+02:00 Discharge m^3/s 4.670000076
1990-12-05T00:00:00.0000000+02:00 Stage m 0.629999995
1991-01-23T00:00:00.0000000+02:00 Discharge m^3/s 3.150000095
1991-01-23T00:00:00.0000000+02:00 Stage m 0.529999971
1991-03-18T00:00:00.0000000+02:00 Discharge m^3/s 4.03000021
1991-03-18T00:00:00.0000000+02:00 Stage m 0.600000024
1991-09-12T00:00:00.0000000+02:00 Discharge m^3/s 2.690000057
1991-09-12T00:00:00.0000000+02:00 Stage m 0.50999999
1992-02-13T00:00:00.0000000+02:00 Discharge m^3/s 3.559999943
1992-02-13T00:00:00.0000000+02:00 Stage m 0.569999993
1992-07-28T00:00:00.0000000+02:00 Discharge m^3/s 2.832000017
1992-07-28T00:00:00.0000000+02:00 Stage m 0.479999989
1992-08-27T00:00:00.0000000+02:00 Discharge m^3/s 2.430000067
1992-08-27T00:00:00.0000000+02:00 Stage m 0.449999988
1992-10-16T00:00:00.0000000+02:00 Discharge m^3/s 3.553999901
1992-10-16T00:00:00.0000000+02:00 Stage m 0.579999983
1993-03-11T00:00:00.0000000+02:00 Discharge m^3/s 4.751999855
1993-03-11T00:00:00.0000000+02:00 Stage m 0.689999998
1996-12-04T00:00:00.0000000+02:00 Discharge m^3/s 2.519999981
1996-12-04T00:00:00.0000000+02:00 Stage m 0.5
2000-04-14T00:00:00.0000000+02:00 Discharge m^3/s 4.440000057
2000-04-14T00:00:00.0000000+02:00 Stage m 0.629999995
2012-11-12T00:00:00.0000000+02:00 Discharge m^3/s 7.7
2012-11-12T00:00:00.0000000+02:00 Stage m 0.62
2013-11-29T00:00:00.0000000+02:00 Discharge m^3/s 4.3
2013-11-29T00:00:00.0000000+02:00 Stage m 0.45
2014-03-10T00:00:00.0000000+02:00 Discharge m^3/s 4.4
2014-03-10T00:00:00.0000000+02:00 Stage m 0.5
2014-06-13T00:00:00.0000000+02:00 Discharge m^3/s 4.2
2014-06-13T00:00:00.0000000+02:00 Stage m 0.45
2017-04-27T00:00:00.0000000+02:00 Discharge m^3/s 4.2
2017-04-27T00:00:00.0000000+02:00 Stage m 0.45
2017-08-31T00:00:00.0000000+02:00 Discharge m^3/s 2.4
2017-08-31T00:00:00.0000000+02:00 Stage m 0.35
2017-12-06T00:00:00.0000000+02:00 Discharge m^3/s 3.866
2017-12-06T00:00:00.0000000+02:00 Stage m 0.37
2018-05-22T16:36:00.0000000+02:00 Discharge m^3/s 16.25
2018-05-22T16:36:00.0000000+02:00 Stage m 0.8
2018-09-05T08:48:00.0000000+02:00 Discharge m^3/s 3.06
2018-09-05T08:48:00.0000000+02:00 Stage m 0.35
2018-12-18T17:49:00.0000000+02:00 Discharge m^3/s 4.06
2018-12-18T17:49:00.0000000+02:00 Stage m 0.45
2019-06-11T17:36:00.0000000+02:00 Discharge m^3/s 4.018
2019-06-11T17:36:00.0000000+02:00 Stage m 0.28
2019-09-12T08:53:00.0000000+02:00 Discharge m^3/s 2.566
2019-09-12T08:53:00.0000000+02:00 Stage m 0.25
2020-06-18T13:16:00.0000000+02:00 Discharge m^3/s 6.959
2020-06-18T13:16:00.0000000+02:00 Stage m 0.45
2020-06-19T08:21:00.0000000+02:00 Discharge m^3/s 7.22
2020-06-19T08:21:00.0000000+02:00 Stage m 0.45
2021-12-02T10:00:00.0000000+02:00 Discharge m^3/s 7.02